SCOUT A DEB, 4555

Orbit data source: Space-Track

SCOUT A DEB, 4555 is space debris in LEO originally from a launch on Thu, 19 May 1966 UTC launched from the Air Force Western Test Range (AFWTR). Debris objects in space refer to the collection of defunct objects orbiting the Earth. Examples of debris include non-operational satellites, rocket bodies, and fragments generated from explosions, collisions, or faulty payload assembly.

Loading next visibility...
Identifier
4555, 1966-041F
Orbit
LEO
Country
Flag of USUS
Related business
Manufacturer
Unknown
Mission
Spacecraft
Bus & Motor
Unknown
Mass
Unknown
Launch date (UTC)
1966-05-19 (60 years ago)
Launch vehicle
Unknown
Launch site
Air Force Western Test Range (AFWTR)
Object type
Payload
Rocket body
Debris
Shape & HBR
Unknown shape, 0.1 m
Radar Cross Section
Small (<0.1 m²)

Expand to show TLE details & history
Last TLE update: 1 day ago

TLE from 1 day ago
0 SCOUT A DEB
1 04555U 66041F   25348.69620094  .00003019  00000-0  74266-3 0  9995
2 04555  90.2095  70.0756 0041542  25.3672 334.9563 14.51620426397151
Epoch: 2025-12-14T16:42Z
TLE epoch observation values (Epoch: 2025-12-14T16:42:31.761Z)
Latitude
0.00002°
Longitude
95.83785°
Altitude
696.761 km
Speed
7.522 km/s
True Right ascension
04h 40m 18s
True Declination
0° 00' 00"
Sunlit
Object was in full shadow at epoch
Visualization orbit readout
Latitude
Unknown
Longitude
Unknown
Altitude
Unknown
Speed
Unknown
Apparent Right ascension
Unknown
Apparent Declination
Unknown
Sunlit
N/A
Visualization observer readout
Local Sidereal Time
19:00:54
Azimuth
Unknown
Elevation
Unknown
Doppler factor
Unknown
Orbital elements
Apogee altitude
746.74 km
Perigee altitude
687.788 km
Semi-major axis
7,095.401 km
Eccentricity
0.00415
Inclination
90.2095°
RAAN
70.0756°
Arg. of periapsis
25.3672°
True anomaly
334.75384°
Mean anomaly
334.9563°
Eccentric anomaly
334.85516°
Mean motion
3.63143 °/min
Orbital period
99.13 mins
BSTAR
0.00074266
Loading maneuver chart data...
Computing Atmospheric mass density...
Loading historical data...
Loading historical data...
Loading historical data...
Loading historical data...
Loading historical data...
Loading historical data...
Loading historical data...

Documentation

Showing up to 5 results
|